Albuquerque, NM

10:36 PM MDT on March 28, 2017 (GMT -0600)
Albuquerque International Sunport

Weather History for KABQ - September, 2012

Change the Weather History Date:

Thursday, September 13, 2012

  Actual Average Record
Temperature  
Mean Temperature 61 °F 70 °F  
Max Temperature 67 °F 82 °F 93 °F (1956)
Min Temperature 55 °F 59 °F 41 °F (1903)
Degree Days  
Heating Degree Days 4 0  
Month to date heating degree days 4 0  
Since 1 July heating degree days 4 0  
Cooling Degree Days 0 6  
Month to date cooling degree days 130 98  
Year to date cooling degree days 1676 1255  
Growing Degree Days 10 (Base 50)    
Moisture  
Dew Point 46 °F    
Average Humidity 60    
Maximum Humidity 77    
Minimum Humidity 42    
Precipitation  
Precipitation 0.09 in 0.03 in 0.60 in (1988)
Month to date precipitation 0.44 0.47  
Year to date precipitation 5.23 6.75  
Snow  
Snow 0.00 in - - ()
Month to date snowfall 0.0  
Since 1 July snowfall 0.0  
Since 1 September snowfall 0.0  
Snow Depth 0.00 in    
Sea Level Pressure  
Sea Level Pressure 30.26 in    
Wind  
Wind Speed 16 mph (East)    
Max Wind Speed 33 mph    
Max Gust Speed 39 mph    
Visibility 10 miles    
Events Rain    
T = Trace of Precipitation, MM = Missing Value Source: NWS Daily Summary

Daily Weather History Graph

Daily Weather History Graph

Search for Another Location

Airport or City:

Trip Planner

Search our weather history database for the weather conditions in past years. The results will help you decide how hot, cold, wet, or windy it might be!

Date:

Astronomy

Sep. 13, 2012 Rise Set
Actual Time 6:48 AM MDT 7:15 PM MDT
Civil Twilight 6:22 AM MDT 7:40 PM MDT
Nautical Twilight 5:52 AM MDT 8:10 PM MDT
Astronomical Twilight 5:22 AM MDT 8:40 PM MDT
Moon 4:15 AM MDT (9/13) 5:36 PM MDT (9/13)
Length of Visible Light 13h 17m
Length of Day
12h 27m
Waning Crescent, 7% of the Moon is Illuminated
Sep 13
Waning Crescent
Sep 15
New
Sep 22
First Quarter
Sep 29
Full
Oct 8
Last Quarter

Hourly Weather History & Observations

Time (MDT) Temp. Dew Point Humidity Pressure Visibility Wind Dir Wind Speed Gust Speed Precip Events Conditions
12:52 AM 61.0 °F 48.0 °F 62% 30.10 in 10.0 mi NE 17.3 mph 27.6 mph N/A   Overcast
1:52 AM 57.9 °F 46.9 °F 67% 30.09 in 10.0 mi East 17.3 mph 27.6 mph N/A   Overcast
2:52 AM 57.9 °F 46.9 °F 67% 30.09 in 10.0 mi ENE 18.4 mph 27.6 mph N/A   Overcast
3:52 AM 57.9 °F 46.0 °F 65% 30.12 in 10.0 mi East 23.0 mph 34.5 mph N/A   Overcast
4:52 AM 57.9 °F 46.0 °F 65% 30.16 in 10.0 mi East 9.2 mph 17.3 mph N/A   Overcast
5:52 AM 55.9 °F 46.9 °F 72% 30.20 in 8.0 mi East 19.6 mph 31.1 mph 0.02 in Rain Light Rain
6:52 AM 55.0 °F 48.0 °F 77% 30.22 in 10.0 mi East 24.2 mph 29.9 mph 0.05 in Rain Light Rain
7:25 AM 55.4 °F 48.2 °F 77% 30.39 in 10.0 mi NE 5.8 mph - 0.02 in Rain Light Rain
7:52 AM 55.9 °F 48.9 °F 77% 30.25 in 10.0 mi NE 4.6 mph - 0.02 in Rain Light Rain
8:52 AM 55.9 °F 50.0 °F 80% 30.27 in 10.0 mi WNW 3.5 mph - 0.00 in Rain Light Rain
9:52 AM 57.0 °F 51.1 °F 81% 30.31 in 10.0 mi Calm Calm - 0.00 in   Overcast
10:25 AM 57.2 °F 48.2 °F 72% 30.45 in 10.0 mi ESE 16.1 mph - N/A   Overcast
10:52 AM 57.9 °F 48.0 °F 70% 30.32 in 10.0 mi East 16.1 mph 24.2 mph N/A   Mostly Cloudy
11:52 AM 59.0 °F 48.0 °F 67% 30.32 in 10.0 mi East 17.3 mph 29.9 mph N/A   Mostly Cloudy
12:52 PM 62.1 °F 48.0 °F 60% 30.29 in 10.0 mi East 23.0 mph 32.2 mph N/A   Mostly Cloudy
1:52 PM 64.9 °F 45.0 °F 48% 30.28 in 10.0 mi East 21.9 mph 32.2 mph N/A   Mostly Cloudy
2:52 PM 64.9 °F 44.1 °F 47% 30.25 in 10.0 mi East 19.6 mph 31.1 mph N/A   Mostly Cloudy
3:52 PM 66.0 °F 44.1 °F 45% 30.25 in 10.0 mi East 15.0 mph 20.7 mph N/A   Mostly Cloudy
4:52 PM 66.9 °F 43.0 °F 42% 30.23 in 10.0 mi East 15.0 mph 31.1 mph N/A   Mostly Cloudy
5:52 PM 66.0 °F 42.1 °F 42% 30.24 in 10.0 mi East 19.6 mph - N/A   Scattered Clouds
6:52 PM 63.0 °F 43.0 °F 48% 30.26 in 10.0 mi East 17.3 mph - N/A   Scattered Clouds
7:52 PM 60.1 °F 45.0 °F 57% 30.29 in 10.0 mi ESE 16.1 mph - N/A   Scattered Clouds
8:52 PM 57.9 °F 45.0 °F 62% 30.32 in 10.0 mi ESE 13.8 mph - N/A   Scattered Clouds
9:52 PM 57.9 °F 45.0 °F 62% 30.33 in 10.0 mi ESE 19.6 mph - N/A   Scattered Clouds
10:52 PM 57.0 °F 44.1 °F 62% 30.35 in 10.0 mi East 16.1 mph - N/A   Partly Cloudy
11:52 PM 55.9 °F 44.1 °F 64% 30.35 in 10.0 mi East 15.0 mph - N/A   Partly Cloudy